Location: Bagnara
(41.0500°N, 14.7833°E)
Time: 23:53:07
(UTC+00:00)

Meteor 2-3 Rocket - Pass Details

Date: 31 October 2021
Orbit: 842 x 885 km, 81.2° (Epoch: 28 November)

Event Time Altitude Azimuth Distance (km) Brightness Sun altitude
Rises 17:59:28 0° 358° (N) 3,429 6.9 -23.4°
Reaches altitude 10° 18:02:06 10° 8° (N) 2,495 6.1 -23.9°
Enters shadow 18:04:05 20° 21° (NNE) 1,870 5.3 -24.3°
